Regional Weather Roundup
Issued by NWS

Home | Current Version | Previous Version | Text Only | Print | Product List | Glossary Off
Versions: 1 2 3 4 5 6 7 8 9 10 11 12 13 14 15 16 17 18 19 20 21 22 23 24 25 26 27 28 29 30 31 32 33 34 35 36 37 38 39 40 41 42 43 44 45 46 47 48 49 50

990
ASUS43 KFSD 301402
RWRSD

WEATHER ROUNDUP FOR SOUTH DAKOTA
NATIONAL WEATHER SERVICE SIOUX FALLS SD
900 AM CDT MON MAY 30 2016

NOTE: "FAIR" INDICATES FEW OR NO CLOUDS BELOW 12,000 FEET WITH NO
SIGNIFICANT WEATHER AND/OR OBSTRUCTIONS TO VISIBILITY.


SDZ001>005-009-010-012>017-301500-
NORTHWEST AND NORTH CENTRAL SOUTH DAKOTA

CITY           SKY/WX    TMP DP  RH WIND       PRES   REMARKS
BUFFALO          N/A     58  52  80 NW9       29.83R
FAITH            N/A     63  54  72 SE20      29.87F
MOBRIDGE       SUNNY     66  56  70 S12       29.88F
$$

SDZ012>016-024>037-041>051-057-063-072>074-301500-
SOUTHWEST AND SOUTH CENTRAL SOUTH DAKOTA

CITY           SKY/WX    TMP DP  RH WIND       PRES   REMARKS
RAPID CTY ARPT CLOUDY    57  54  89 SE3       29.87F
PIERRE         CLOUDY    65  58  78 SE15G21   29.89F
CUSTER         CLOUDY    58  42  55 SW10G18   30.00S
ELLSWORTH AFB  PTSUNNY   61  55  78 S7        29.86F
PHILIP         MOSUNNY   63  58  83 E7        29.88F
PINE RIDGE     MOSUNNY   63  51  65 S14       29.92F
WINNER         FAIR      68  58  70 SE15      29.95F
$$

SDZ004>011-016>023-039-040-301500-
NORTHEAST SOUTH DAKOTA

CITY           SKY/WX    TMP DP  RH WIND       PRES   REMARKS
ABERDEEN       SUNNY     68  55  63 S6        29.93F
WATERTOWN      MOSUNNY   68  56  65 S8        29.96R
BROOKINGS      CLOUDY    64  56  75 S9        29.98R
SISSETON         N/A     76  52  43 SW10      29.92F
$$

SDZ017-020-022-023-036>040-048>070-301500-
SOUTHEAST SOUTH DAKOTA

CITY           SKY/WX    TMP DP  RH WIND       PRES   REMARKS
SIOUX FALLS    PTSUNNY   70  55  59 SE6       29.99S
HURON          MOSUNNY   63  59  87 S8        29.94R
MITCHELL       MOSUNNY   67  59  75 SE18G28   29.96F
YANKTON        MOSUNNY   66  55  68 SE8       29.99R
$$

ABBREVIATIONS USED IN REMARKS
   TC - TEMPERATURE IN CELSIUS
  WCI - WIND CHILL INDEX
   HX - HEAT INDEX
  VSB - VISIBILITY





USA.gov is the U.S. government's official web portal to all federal, state and local government web resources and services.